Погода в Дона-Пауле

Индия     15°27′30″N   73°48′23″E
темп.,
°C
ветер,
м/с
пор.,
м/с
влажн.,
%
обл.,
%
осадки,
мм/ч
давл.,
гПа
погр.,
м
13 мая, чт
чт1323:30+30зсз3371100 0.1 1006568
02:30+29зсз3373100 0.0 1005652
05:30+29ссз2376100 0.3 1005399
08:30+30ссз3373100 0.1 1007573
11:30+30з5471100 0.2 1006692
14:30+31зсз656715 0.4 1003574
17:30+30зсз5571100 0.4 1003622
20:30+30ссв1271100 0.4 1005338
14 мая, пт
пт1423:30+30зюз227299 0.5 1005451
02:30+29ссв0173100 0.1 1003393
05:30+28в2379100 0.8 1003287
08:30+29юв3476100 0.1 1005656
11:30+30зюз337087 0.1 1004623
14:30+30зюз6672100 0.2 1001454
17:30+30з4472100 0.3 1002756
20:30+29зюз1177100 0.2 1003287
15 мая, сб
сб1523:30+28с4484100 1.1 1001342
02:30+28с3482100 0.0 998293
05:30+28ссв4580100 0.0 999337
08:30+29ююв4573100 1.4 1000310
11:30+30ю6670100 2.1 1000496
14:30+31вюв81163100 1.3 997637
17:30+29в101671100 1.6 9961142
20:30+29вюв81266100 0.2 9981208
16 мая, вс
вс1623:30+29в81469100 0.8 9971177
02:30+28в91571100 8.2 9941215
05:30+28вюв152275100 9.7 9931561
08:30+27юв172390100 13.8 9951657
11:30+28ююв192689100 29.5 9951742
14:30+27ююв162194100 13.5 9931282
17:30+28ю162086100 41.1 9961494
20:30+28ю151985100 3.5 9991322
17 мая, пн
пн1723:30+28ю141883100 7.7 10001366
02:30+28ю131879100 2.6 9991374
05:30+29ю121580100 5.4 10001329
08:30+29ю12158030 3.2 10031302
11:30+29ю11137980 5.4 10041099
14:30+30ю911731 2.9 10031112
17:30+29ю10117666 3.0 10031052
20:30+29ю101278100 0.3 1004996